| time (UTC) | temp F | wind direction | speed knots | gust knots | rain 1hr in | rain 24hr in | rain mn in | humidity % | barometer mb |
| 20260509134954 | 73 | 9 | 0.9 | 5.2 | 0.00 | 0.09 | 0.00 | 79 | 1009.2 |
| 20260509133921 | 72 | 313 | 0.9 | 5.2 | 0.00 | 0.09 | 0.00 | 81 | 1009.1 |
| 20260509132905 | 71 | 320 | 0.9 | 3.5 | 0.00 | 0.09 | 0.00 | 82 | 1009.1 |
| 20260509130725 | 70 | 323 | 0.0 | 0.0 | 0.00 | 0.09 | 0.00 | 85 | 1009.2 |
| 20260509124523 | 69 | 331 | 0.0 | 1.7 | 0.00 | 0.09 | 0.00 | 86 | 1009.2 |
| 20260509123544 | 69 | 351 | 0.0 | 6.1 | 0.00 | 0.09 | 0.00 | 86 | 1009.0 |
| 20260509122549 | 69 | 319 | 0.9 | 6.1 | 0.00 | 0.09 | 0.00 | 86 | 1009.0 |
| 20260509121529 | 69 | 321 | 0.0 | 2.6 | 0.00 | 0.09 | 0.00 | 86 | 1009.0 |
| 20260509120548 | 68 | 290 | 0.0 | 2.6 | 0.00 | 0.09 | 0.00 | 86 | 1008.9 |
| 20260509115532 | 68 | 265 | 0.0 | 4.3 | 0.00 | 0.09 | 0.00 | 86 | 1008.8 |
| 20260509114529 | 68 | 337 | 0.0 | 4.3 | 0.00 | 0.09 | 0.00 | 87 | 1008.7 |
| 20260509113543 | 68 | 355 | 0.0 | 2.6 | 0.00 | 0.09 | 0.00 | 87 | 1008.4 |
| 20260509112547 | 68 | 281 | 0.0 | 2.6 | 0.00 | 0.09 | 0.00 | 87 | 1008.4 |
| 20260509111552 | 68 | 325 | 0.0 | 1.7 | 0.00 | 0.09 | 0.00 | 87 | 1008.0 |
| 20260509104233 | 69 | 115 | 0.0 | 0.0 | 0.00 | 0.09 | 0.00 | 85 | 1007.5 |
| 20260509103158 | 69 | 120 | 0.0 | 0.0 | 0.00 | 0.10 | 0.00 | 85 | 1007.3 |
| 20260509102203 | 69 | 120 | 0.0 | 0.0 | 0.00 | 0.10 | 0.00 | 84 | 1007.0 |
| 20260509101220 | 70 | 120 | 0.0 | 0.0 | 0.00 | 0.12 | 0.00 | 84 | 1007.2 |
| 20260509100226 | 70 | 120 | 0.0 | 0.0 | 0.00 | 0.13 | 0.00 | 84 | 1007.2 |
| 20260509091843 | 71 | 28 | 0.0 | 1.7 | 0.00 | 0.13 | 0.00 | 82 | 1006.3 |
| 20260509085755 | 71 | 40 | 0.0 | 6.1 | 0.00 | 0.14 | 0.00 | 80 | 1006.4 |
| 20260509083654 | 71 | 24 | 0.9 | 3.5 | 0.00 | 0.14 | 0.00 | 80 | 1006.0 |
| 20260509082619 | 71 | 128 | 0.0 | 1.7 | 0.00 | 0.14 | 0.00 | 80 | 1005.2 |
| 20260509081556 | 71 | 114 | 0.9 | 7.8 | 0.00 | 0.14 | 0.00 | 80 | 1004.8 |
| 20260509080523 | 71 | 138 | 1.7 | 7.8 | 0.00 | 0.14 | 0.00 | 82 | 1004.9 |
| 20260509075544 | 71 | 240 | 1.7 | 7.0 | 0.00 | 0.14 | 0.00 | 82 | 1005.4 |
| 20260509074530 | 71 | 182 | 1.7 | 7.0 | 0.00 | 0.14 | 0.00 | 82 | 1006.0 |
| 20260509073519 | 71 | 219 | 1.7 | 12.2 | 0.00 | 0.14 | 0.00 | 82 | 1006.6 |
| 20260509072449 | 71 | 236 | 1.7 | 12.2 | 0.00 | 0.14 | 0.00 | 83 | 1007.4 |
| 20260509071413 | 70 | 180 | 1.7 | 9.6 | 0.00 | 0.14 | 0.00 | 83 | 1007.4 |
| 20260509070435 | 70 | 223 | 1.7 | 7.0 | 0.00 | 0.14 | 0.00 | 84 | 1007.7 |
| 20260509065444 | 70 | 248 | 1.7 | 4.3 | 0.00 | 0.14 | 0.00 | 85 | 1008.1 |
| 20260509064501 | 69 | 232 | 0.9 | 4.3 | 0.00 | 0.14 | 0.00 | 85 | 1008.2 |
| 20260509063519 | 69 | 211 | 0.9 | 3.5 | 0.00 | 0.14 | 0.00 | 84 | 1008.5 |
| 20260509062509 | 69 | 232 | 0.0 | 2.6 | 0.00 | 0.14 | 0.00 | 84 | 1009.0 |
| 20260509061457 | 69 | 232 | 0.9 | 3.5 | 0.00 | 0.14 | 0.00 | 84 | 1009.0 |
| 20260509060503 | 69 | 231 | 0.9 | 3.5 | 0.00 | 0.14 | 0.00 | 83 | 1008.8 |
| 20260509055514 | 69 | 271 | 0.9 | 2.6 | 0.00 | 0.14 | 0.00 | 83 | 1008.9 |
| 20260509054532 | 70 | 338 | 0.0 | 0.0 | 0.00 | 0.14 | 0.00 | 82 | 1008.9 |
| 20260509053508 | 70 | 355 | 0.0 | 0.0 | 0.00 | 0.14 | 0.00 | 81 | 1009.0 |
| 20260509051412 | 71 | 355 | 0.0 | 0.0 | 0.00 | 0.14 | 0.00 | 80 | 1009.5 |
| 20260509045313 | 71 | 340 | 0.0 | 5.2 | 0.00 | 0.14 | 0.14 | 80 | 1010.3 |
| 20260509044325 | 71 | 355 | 0.9 | 5.2 | 0.00 | 0.14 | 0.14 | 81 | 1010.4 |
| 20260509043302 | 71 | 192 | 0.0 | 0.0 | 0.00 | 0.14 | 0.14 | 79 | 1008.8 |
| 20260509041121 | 71 | 192 | 0.0 | 0.0 | 0.00 | 0.14 | 0.14 | 78 | 1009.0 |
| 20260509040142 | 72 | 192 | 0.0 | 1.7 | 0.00 | 0.14 | 0.14 | 78 | 1008.7 |
| 20260509035144 | 72 | 201 | 0.0 | 0.9 | 0.00 | 0.14 | 0.14 | 78 | 1008.1 |
| 20260509033013 | 72 | 106 | 0.9 | 4.3 | 0.00 | 0.14 | 0.14 | 77 | 1007.7 |
| 20260509032035 | 72 | 119 | 0.0 | 3.5 | 0.00 | 0.14 | 0.14 | 77 | 1008.1 |
| 20260509031032 | 72 | 51 | 0.9 | 3.5 | 0.00 | 0.14 | 0.14 | 77 | 1009.0 |
| 20260509030039 | 72 | 64 | 0.0 | 1.7 | 0.00 | 0.14 | 0.14 | 78 | 1009.2 |
| 20260509025052 | 72 | 124 | 0.0 | 0.9 | 0.00 | 0.14 | 0.14 | 78 | 1008.6 |
| 20260509024032 | 72 | 124 | 0.0 | 2.6 | 0.00 | 0.14 | 0.14 | 78 | 1008.0 |
| 20260509023053 | 72 | 164 | 0.0 | 2.6 | 0.00 | 0.14 | 0.14 | 78 | 1007.7 |
| 20260509020918 | 72 | 178 | 0.0 | 1.7 | 0.00 | 0.14 | 0.14 | 77 | 1006.9 |
| 20260509015932 | 72 | 125 | 0.0 | 2.6 | 0.00 | 0.14 | 0.14 | 76 | 1006.5 |
| 20260509014931 | 72 | 135 | 0.0 | 1.7 | 0.00 | 0.14 | 0.14 | 75 | 1006.7 |
| 20260509013953 | 73 | 138 | 0.0 | 1.7 | 0.00 | 0.14 | 0.14 | 74 | 1006.5 |
| 20260509012930 | 73 | 147 | 0.0 | 0.0 | 0.00 | 0.14 | 0.14 | 73 | 1006.6 |
| 20260509010753 | 74 | 173 | 0.0 | 1.7 | 0.00 | 0.14 | 0.14 | 72 | 1007.1 |
| 20260509005722 | 74 | 207 | 0.0 | 3.5 | 0.00 | 0.14 | 0.14 | 71 | 1007.1 |
| 20260509004658 | 74 | 171 | 0.0 | 3.5 | 0.00 | 0.14 | 0.14 | 71 | 1006.9 |
| 20260509001500 | 75 | 222 | 0.9 | 6.1 | 0.00 | 0.14 | 0.14 | 69 | 1006.4 |
| 20260508235336 | 76 | 198 | 1.7 | 7.8 | 0.00 | 0.14 | 0.14 | 68 | 1006.5 |
| 20260508234308 | 76 | 137 | 1.7 | 7.8 | 0.00 | 0.14 | 0.14 | 69 | 1006.7 |
| 20260508233320 | 76 | 169 | 1.7 | 6.1 | 0.00 | 0.14 | 0.14 | 68 | 1006.7 |
| 20260508231115 | 77 | 186 | 0.9 | 5.2 | 0.00 | 0.14 | 0.14 | 65 | 1006.8 |
| 20260508230107 | 77 | 246 | 1.7 | 6.1 | 0.00 | 0.14 | 0.14 | 65 | 1006.8 |
| 20260508225121 | 77 | 105 | 1.7 | 7.8 | 0.00 | 0.14 | 0.14 | 66 | 1006.8 |
| 20260508223022 | 77 | 132 | 1.7 | 7.0 | 0.00 | 0.14 | 0.14 | 65 | 1007.1 |
| 20260508222024 | 77 | 53 | 1.7 | 6.1 | 0.00 | 0.14 | 0.14 | 63 | 1007.0 |
| 20260508221016 | 78 | 182 | 1.7 | 6.1 | 0.00 | 0.14 | 0.14 | 65 | 1007.1 |
| 20260508220017 | 78 | 250 | 1.7 | 7.8 | 0.00 | 0.14 | 0.14 | 64 | 1007.1 |
| 20260508214954 | 78 | 228 | 2.6 | 8.7 | 0.00 | 0.14 | 0.14 | 64 | 1007.1 |
| 20260508213921 | 78 | 115 | 1.7 | 8.7 | 0.00 | 0.14 | 0.14 | 64 | 1007.1 |
| 20260508212859 | 78 | 204 | 1.7 | 5.2 | 0.00 | 0.14 | 0.14 | 63 | 1007.1 |
| 20260508210641 | 77 | 156 | 1.7 | 6.1 | 0.00 | 0.14 | 0.14 | 63 | 1007.2 |
| 20260508205605 | 77 | 106 | 1.7 | 7.0 | 0.00 | 0.14 | 0.14 | 65 | 1007.2 |
| 20260508204531 | 76 | 227 | 2.6 | 7.0 | 0.00 | 0.14 | 0.14 | 65 | 1007.7 |
| 20260508203544 | 75 | 101 | 1.7 | 7.8 | 0.00 | 0.14 | 0.14 | 67 | 1008.4 |
| 20260508202531 | 76 | 197 | 1.7 | 7.8 | 0.00 | 0.14 | 0.14 | 67 | 1008.9 |
| 20260508201519 | 76 | 188 | 1.7 | 5.2 | 0.00 | 0.14 | 0.14 | 66 | 1009.1 |
| 20260508200537 | 76 | 144 | 1.7 | 7.8 | 0.00 | 0.14 | 0.14 | 65 | 1009.1 |
| 20260508195533 | 77 | 254 | 1.7 | 7.8 | 0.00 | 0.14 | 0.14 | 65 | 1009.2 |
| 20260508194523 | 77 | 118 | 1.7 | 5.2 | 0.00 | 0.14 | 0.14 | 68 | 1009.2 |
| 20260508193459 | 76 | 150 | 0.9 | 7.0 | 0.00 | 0.14 | 0.14 | 66 | 1009.3 |
| 20260508192521 | 76 | 223 | 1.7 | 7.0 | 0.00 | 0.14 | 0.14 | 67 | 1009.3 |
| 20260508191523 | 77 | 225 | 1.7 | 5.2 | 0.00 | 0.14 | 0.14 | 66 | 1009.4 |
| 20260508190513 | 77 | 169 | 0.9 | 6.1 | 0.00 | 0.14 | 0.14 | 66 | 1009.5 |
| 20260508185459 | 77 | 220 | 1.7 | 6.1 | 0.00 | 0.14 | 0.14 | 68 | 1009.6 |
| 20260508184504 | 77 | 257 | 0.9 | 7.0 | 0.00 | 0.14 | 0.14 | 67 | 1009.6 |
| 20260508183451 | 76 | 208 | 1.7 | 7.0 | 0.00 | 0.14 | 0.14 | 67 | 1009.7 |
| 20260508182437 | 75 | 262 | 0.9 | 5.2 | 0.00 | 0.14 | 0.14 | 67 | 1009.8 |
| 20260508181400 | 75 | 250 | 1.7 | 7.0 | 0.00 | 0.14 | 0.14 | 67 | 1010.1 |
| 20260508180417 | 75 | 176 | 2.6 | 7.0 | 0.00 | 0.14 | 0.14 | 66 | 1010.4 |
| 20260508175408 | 75 | 222 | 0.9 | 7.0 | 0.00 | 0.14 | 0.14 | 66 | 1010.5 |
| 20260508174358 | 73 | 88 | 1.7 | 7.0 | 0.00 | 0.14 | 0.14 | 67 | 1010.8 |
| 20260508172301 | 73 | 229 | 0.9 | 4.3 | 0.00 | 0.14 | 0.14 | 67 | 1010.9 |
| 20260508171306 | 73 | 163 | 0.9 | 3.5 | 0.00 | 0.14 | 0.14 | 69 | 1011.1 |
| 20260508170236 | 72 | 133 | 0.9 | 5.2 | 0.00 | 0.14 | 0.14 | 70 | 1011.3 |
| 20260508165206 | 71 | 262 | 0.9 | 5.2 | 0.00 | 0.14 | 0.14 | 70 | 1011.6 |
| 20260508164216 | 70 | 168 | 0.9 | 5.2 | 0.00 | 0.14 | 0.14 | 72 | 1011.9 |
| 20260508162108 | 67 | 128 | 0.0 | 5.2 | 0.00 | 0.14 | 0.14 | 80 | 1012.3 |
| 20260508161103 | 66 | 134 | 0.9 | 4.3 | 0.00 | 0.14 | 0.14 | 82 | 1012.4 |
| 20260508160059 | 66 | 120 | 0.0 | 1.7 | 0.00 | 0.14 | 0.14 | 84 | 1012.5 |
| 20260508155052 | 65 | 0 | 0.0 | 1.7 | 0.00 | 0.14 | 0.14 | 84 | 1012.7 |
| 20260508154102 | 65 | 0 | 0.0 | 0.0 | 0.00 | 0.14 | 0.14 | 84 | 1012.7 |
| 20260508153027 | 65 | 120 | 0.0 | 0.0 | 0.04 | 0.14 | 0.14 | 83 | 1012.8 |
| 20260508152024 | 64 | 121 | 0.0 | 0.0 | 0.09 | 0.14 | 0.14 | 82 | 1012.9 |
| 20260508145908 | 65 | 120 | 0.0 | 2.6 | 0.00 | 0.05 | 0.05 | 78 | 1013.0 |
| 20260508144906 | 65 | 148 | 0.0 | 0.9 | 0.00 | 0.05 | 0.05 | 77 | 1013.0 |
| 20260508143927 | 66 | 166 | 0.9 | 4.3 | 0.00 | 0.05 | 0.05 | 76 | 1013.3 |
| 20260508142917 | 65 | 203 | 0.9 | 3.5 | 0.00 | 0.05 | 0.05 | 79 | 1013.2 |
| 20260508141855 | 64 | 128 | 0.0 | 1.7 | 0.00 | 0.05 | 0.05 | 81 | 1013.3 |
| 20260508140846 | 63 | 144 | 0.0 | 0.9 | 0.00 | 0.05 | 0.05 | 82 | 1013.7 |